User: anonymous   Login
Location: Unspecified
(0.0000°N, 0.0000°E)
Time: 05:37:37
(UTC+02:00)
Language:

SeaSat 1 - Orbit

View from above orbital plane
View from above orbital plane
View from above satellite
View from above satellite

Ground track
Ground track

The orbit data is extracted from the following two-line orbital elements,

1 10967U 78064A   16241.56402069  .00000026  00000-0  48095-4 0  9992
2 10967 108.0080  48.0400 0001788 297.5322  62.5641 14.43573596  4377
Epoch (UTC): 28 August 2016 13:32:11
Eccentricity: 0.0001788
inclination: 108.0080°
perigee height: 745 km
apogee height: 748 km
right ascension of ascending node: 48.0400°
argument of perigee: 297.5322°
revolutions per day: 14.43573596
mean anomaly at epoch: 62.5641°
orbit number at epoch: 437

The dashed part of the orbit path shows where the satellite is in the earth's shadow,  

DLR